| time (UTC) | temp F | wind direction | speed knots | gust knots | rain 1hr in | rain 24hr in | rain mn in | humidity % | barometer mb |
| 20260901112347 | 59 | 216 | 1.7 | 5.2 | 0.00 | 0.00 | 0.00 | 84 | 1011.1 |
| 20260901111846 | 59 | 232 | 1.7 | 7.0 | 0.00 | 0.00 | 0.00 | 85 | 1011.1 |
| 20260901111347 | 59 | 245 | 1.7 | 7.0 | 0.00 | 0.00 | 0.00 | 86 | 1011.0 |
| 20260901111121 | 59 | 234 | 3.5 | 6.1 | 0.00 | 0.00 | 0.00 | 84 | 1011.0 |
| 20260901110343 | 60 | 215 | 4.3 | 7.8 | 0.00 | 0.00 | 0.00 | 84 | 1011.0 |
| 20260901105843 | 60 | 195 | 3.5 | 7.8 | 0.00 | 0.00 | 0.00 | 83 | 1011.0 |
| 20260901105343 | 60 | 199 | 2.6 | 6.1 | 0.00 | 0.00 | 0.00 | 80 | 1011.0 |
| 20260901104844 | 60 | 166 | 1.7 | 5.2 | 0.00 | 0.00 | 0.00 | 80 | 1011.0 |
| 20260901104339 | 60 | 216 | 1.7 | 3.5 | 0.00 | 0.00 | 0.00 | 80 | 1011.1 |
| 20260901103838 | 60 | 216 | 1.7 | 3.5 | 0.00 | 0.00 | 0.00 | 80 | 1011.0 |
| 20260901103330 | 60 | 203 | 1.7 | 3.5 | 0.00 | 0.00 | 0.00 | 80 | 1011.0 |
| 20260901102829 | 60 | 251 | 1.7 | 3.5 | 0.00 | 0.00 | 0.00 | 80 | 1011.1 |
| 20260901102330 | 60 | 221 | 0.9 | 3.5 | 0.00 | 0.00 | 0.00 | 80 | 1011.0 |
| 20260901102053 | 60 | 201 | 0.9 | 2.6 | 0.00 | 0.00 | 0.00 | 80 | 1011.0 |
| 20260901100818 | 60 | 201 | 1.7 | 6.1 | 0.00 | 0.00 | 0.00 | 80 | 1011.1 |
| 20260901100318 | 60 | 207 | 1.7 | 6.1 | 0.00 | 0.00 | 0.00 | 80 | 1011.0 |
| 20260901095819 | 60 | 205 | 1.7 | 4.3 | 0.00 | 0.00 | 0.00 | 80 | 1011.0 |
| 20260901095306 | 60 | 187 | 1.7 | 5.2 | 0.00 | 0.00 | 0.00 | 80 | 1011.0 |
| 20260901094757 | 60 | 216 | 1.7 | 5.2 | 0.00 | 0.00 | 0.00 | 80 | 1010.9 |
| 20260901094520 | 60 | 207 | 1.7 | 5.2 | 0.00 | 0.00 | 0.00 | 80 | 1011.0 |
| 20260901093752 | 60 | 177 | 2.6 | 5.2 | 0.00 | 0.00 | 0.00 | 80 | 1011.0 |
| 20260901093248 | 60 | 183 | 2.6 | 5.2 | 0.00 | 0.00 | 0.00 | 80 | 1011.0 |
| 20260901092742 | 60 | 172 | 2.6 | 4.3 | 0.00 | 0.00 | 0.00 | 80 | 1011.0 |
| 20260901092238 | 60 | 177 | 2.6 | 4.3 | 0.00 | 0.00 | 0.00 | 80 | 1011.1 |
| 20260901091732 | 60 | 181 | 2.6 | 4.3 | 0.00 | 0.00 | 0.00 | 79 | 1011.1 |
| 20260901091230 | 60 | 189 | 2.6 | 4.3 | 0.00 | 0.00 | 0.00 | 80 | 1011.1 |
| 20260901090726 | 60 | 187 | 2.6 | 4.3 | 0.00 | 0.00 | 0.00 | 80 | 1011.1 |
| 20260901090439 | 60 | 179 | 2.6 | 3.5 | 0.00 | 0.00 | 0.00 | 80 | 1011.2 |
| 20260901085723 | 60 | 131 | 1.7 | 3.5 | 0.00 | 0.00 | 0.00 | 80 | 1011.2 |
| 20260901085220 | 60 | 197 | 1.7 | 3.5 | 0.00 | 0.00 | 0.00 | 80 | 1011.2 |
| 20260901084721 | 60 | 210 | 2.6 | 7.0 | 0.00 | 0.00 | 0.00 | 80 | 1011.2 |
| 20260901084207 | 60 | 188 | 2.6 | 7.0 | 0.00 | 0.00 | 0.00 | 80 | 1011.2 |
| 20260901083708 | 60 | 211 | 2.6 | 6.1 | 0.00 | 0.00 | 0.00 | 80 | 1011.1 |
| 20260901083207 | 60 | 177 | 2.6 | 5.2 | 0.00 | 0.00 | 0.00 | 80 | 1011.1 |
| 20260901082711 | 60 | 168 | 2.6 | 6.1 | 0.00 | 0.00 | 0.00 | 80 | 1011.2 |
| 20260901082205 | 60 | 190 | 3.5 | 6.1 | 0.00 | 0.00 | 0.00 | 80 | 1011.1 |
| 20260901081706 | 60 | 187 | 2.6 | 6.1 | 0.00 | 0.00 | 0.00 | 80 | 1011.1 |
| 20260901081204 | 60 | 183 | 1.7 | 5.2 | 0.00 | 0.00 | 0.00 | 80 | 1011.1 |
| 20260901080704 | 60 | 193 | 1.7 | 5.2 | 0.00 | 0.00 | 0.00 | 80 | 1011.0 |
| 20260901080205 | 60 | 179 | 1.7 | 3.5 | 0.00 | 0.00 | 0.00 | 80 | 1011.0 |
| 20260901075654 | 60 | 211 | 1.7 | 5.2 | 0.00 | 0.00 | 0.00 | 81 | 1011.0 |
| 20260901075150 | 59 | 197 | 2.6 | 5.2 | 0.00 | 0.00 | 0.00 | 80 | 1010.9 |
| 20260901074647 | 59 | 188 | 2.6 | 4.3 | 0.00 | 0.00 | 0.00 | 80 | 1010.9 |
| 20260901074410 | 59 | 165 | 2.6 | 4.3 | 0.00 | 0.00 | 0.00 | 81 | 1010.8 |
| 20260901073638 | 59 | 172 | 2.6 | 4.3 | 0.00 | 0.00 | 0.00 | 80 | 1010.8 |
| 20260901073347 | 59 | 151 | 2.6 | 4.3 | 0.00 | 0.00 | 0.00 | 81 | 1010.8 |
| 20260901072607 | 59 | 172 | 2.6 | 4.3 | 0.00 | 0.00 | 0.00 | 81 | 1010.8 |
| 20260901072102 | 59 | 158 | 2.6 | 5.2 | 0.00 | 0.00 | 0.00 | 81 | 1010.8 |
| 20260901071825 | 59 | 186 | 3.5 | 5.2 | 0.00 | 0.00 | 0.00 | 81 | 1010.8 |
| 20260901071101 | 59 | 161 | 3.5 | 6.1 | 0.00 | 0.00 | 0.00 | 81 | 1010.8 |
| 20260901070553 | 59 | 165 | 3.5 | 6.1 | 0.00 | 0.00 | 0.00 | 82 | 1010.8 |
| 20260901070316 | 58 | 172 | 2.6 | 6.1 | 0.00 | 0.00 | 0.00 | 82 | 1010.8 |
| 20260901065553 | 58 | 188 | 2.6 | 6.1 | 0.00 | 0.00 | 0.00 | 82 | 1010.9 |
| 20260901065053 | 58 | 170 | 2.6 | 6.1 | 0.00 | 0.00 | 0.00 | 82 | 1010.9 |
| 20260901064549 | 58 | 182 | 2.6 | 6.1 | 0.00 | 0.00 | 0.00 | 83 | 1010.8 |
| 20260901064050 | 58 | 178 | 3.5 | 5.2 | 0.00 | 0.00 | 0.00 | 83 | 1010.8 |
| 20260901063548 | 58 | 158 | 2.6 | 5.2 | 0.00 | 0.00 | 0.00 | 83 | 1010.9 |
| 20260901063049 | 58 | 175 | 2.6 | 4.3 | 0.00 | 0.00 | 0.00 | 83 | 1010.8 |
| 20260901062549 | 58 | 147 | 2.6 | 5.2 | 0.00 | 0.00 | 0.00 | 83 | 1010.9 |
| 20260901062053 | 58 | 141 | 2.6 | 5.2 | 0.00 | 0.00 | 0.00 | 83 | 1010.9 |
| 20260901061546 | 58 | 193 | 2.6 | 7.0 | 0.00 | 0.00 | 0.00 | 83 | 1010.9 |
| 20260901061045 | 58 | 198 | 3.5 | 7.0 | 0.00 | 0.00 | 0.00 | 82 | 1011.0 |
| 20260901060543 | 58 | 187 | 3.5 | 7.8 | 0.00 | 0.00 | 0.00 | 82 | 1011.0 |
| 20260901060042 | 58 | 216 | 3.5 | 7.8 | 0.00 | 0.00 | 0.00 | 83 | 1010.9 |
| 20260901055806 | 58 | 194 | 4.3 | 7.0 | 0.00 | 0.00 | 0.00 | 83 | 1010.9 |
| 20260901055040 | 58 | 191 | 3.5 | 7.0 | 0.00 | 0.00 | 0.00 | 82 | 1011.0 |
| 20260901054541 | 58 | 202 | 3.5 | 7.8 | 0.00 | 0.00 | 0.00 | 82 | 1011.0 |
| 20260901054301 | 58 | 233 | 3.5 | 7.8 | 0.00 | 0.00 | 0.00 | 82 | 1011.0 |
| 20260901053758 | 58 | 228 | 3.5 | 7.8 | 0.00 | 0.00 | 0.00 | 82 | 1011.0 |
| 20260901053038 | 58 | 259 | 4.3 | 7.8 | 0.00 | 0.00 | 0.00 | 82 | 1011.0 |
| 20260901052537 | 59 | 251 | 4.3 | 7.8 | 0.00 | 0.00 | 0.00 | 82 | 1010.9 |
| 20260901052038 | 59 | 216 | 4.3 | 7.8 | 0.00 | 0.00 | 0.00 | 82 | 1010.9 |
| 20260901051536 | 59 | 202 | 4.3 | 7.8 | 0.00 | 0.00 | 0.00 | 81 | 1010.8 |
| 20260901051036 | 59 | 243 | 5.2 | 8.7 | 0.00 | 0.00 | 0.00 | 81 | 1010.9 |
| 20260901050532 | 59 | 174 | 4.3 | 8.7 | 0.00 | 0.00 | 0.00 | 81 | 1010.8 |
| 20260901050035 | 59 | 244 | 4.3 | 7.8 | 0.00 | 0.00 | 0.00 | 81 | 1010.9 |
| 20260901045532 | 59 | 216 | 5.2 | 10.4 | 0.00 | 0.00 | 0.00 | 81 | 1010.8 |
| 20260901045255 | 59 | 171 | 6.1 | 10.4 | 0.00 | 0.00 | 0.00 | 81 | 1010.6 |
| 20260901044532 | 59 | 245 | 7.0 | 11.3 | 0.00 | 0.00 | 0.00 | 80 | 1010.5 |
| 20260901044253 | 60 | 247 | 8.7 | 15.6 | 0.00 | 0.00 | 0.00 | 80 | 1010.6 |
| 20260901043532 | 60 | 269 | 9.6 | 15.6 | 0.00 | 0.00 | 0.00 | 80 | 1010.4 |
| 20260901043032 | 60 | 236 | 10.4 | 14.8 | 0.00 | 0.00 | 0.00 | 79 | 1010.1 |
| 20260901042532 | 60 | 244 | 9.6 | 13.0 | 0.00 | 0.00 | 0.00 | 79 | 1010.0 |
| 20260901042257 | 60 | 253 | 7.8 | 12.2 | 0.00 | 0.00 | 0.00 | 78 | 1010.2 |
| 20260901041533 | 60 | 259 | 7.0 | 11.3 | 0.00 | 0.00 | 0.00 | 78 | 1010.1 |
| 20260901041034 | 61 | 237 | 8.7 | 15.6 | 0.00 | 0.00 | 0.00 | 77 | 1010.1 |
| 20260901040533 | 61 | 230 | 10.4 | 15.6 | 0.00 | 0.00 | 0.00 | 76 | 1009.9 |
| 20260901040026 | 62 | 253 | 8.7 | 14.8 | 0.00 | 0.00 | 0.00 | 76 | 1009.9 |
| 20260901035528 | 62 | 236 | 6.1 | 11.3 | 0.00 | 0.00 | 0.00 | 74 | 1009.8 |
| 20260901035026 | 63 | 255 | 5.2 | 11.3 | 0.00 | 0.00 | 0.00 | 73 | 1009.8 |
| 20260901034517 | 63 | 259 | 4.3 | 10.4 | 0.00 | 0.00 | 0.00 | 72 | 1009.6 |
| 20260901034019 | 63 | 307 | 3.5 | 10.4 | 0.00 | 0.00 | 0.00 | 71 | 1009.3 |
| 20260901033518 | 64 | 251 | 4.3 | 10.4 | 0.00 | 0.00 | 0.00 | 71 | 1009.2 |
| 20260901033238 | 64 | 261 | 3.5 | 10.4 | 0.00 | 0.00 | 0.00 | 70 | 1009.1 |
| 20260901032515 | 64 | 248 | 4.3 | 12.2 | 0.00 | 0.00 | 0.00 | 69 | 1008.9 |
| 20260901032015 | 65 | 235 | 7.0 | 13.0 | 0.00 | 0.00 | 0.00 | 69 | 1008.8 |
| 20260901031736 | 65 | 245 | 9.6 | 14.8 | 0.00 | 0.00 | 0.00 | 68 | 1008.5 |
| 20260901031012 | 66 | 247 | 11.3 | 16.5 | 0.00 | 0.00 | 0.00 | 67 | 1008.3 |
| 20260901030510 | 66 | 241 | 11.3 | 16.5 | 0.00 | 0.00 | 0.00 | 66 | 1008.3 |
| 20260901030007 | 67 | 243 | 11.3 | 19.1 | 0.00 | 0.00 | 0.00 | 66 | 1008.2 |
| 20260901025509 | 67 | 222 | 11.3 | 19.1 | 0.00 | 0.00 | 0.00 | 65 | 1008.1 |
| 20260901025006 | 68 | 259 | 12.2 | 18.2 | 0.00 | 0.00 | 0.00 | 64 | 1008.2 |
| 20260901024457 | 68 | 238 | 12.2 | 18.2 | 0.00 | 0.00 | 0.00 | 63 | 1008.1 |
| 20260901023956 | 69 | 263 | 11.3 | 17.4 | 0.00 | 0.00 | 0.00 | 62 | 1008.0 |
| 20260901023454 | 69 | 257 | 12.2 | 18.2 | 0.00 | 0.00 | 0.00 | 62 | 1007.9 |
| 20260901022952 | 70 | 256 | 12.2 | 18.2 | 0.00 | 0.00 | 0.00 | 60 | 1007.9 |
| 20260901022945 | 70 | 251 | 11.3 | 17.4 | 0.00 | 0.00 | 0.00 | 60 | 1007.9 |
| 20260901021953 | 71 | 254 | 12.2 | 17.4 | 0.00 | 0.00 | 0.00 | 59 | 1007.8 |
| 20260901021450 | 71 | 262 | 12.2 | 17.4 | 0.00 | 0.00 | 0.00 | 58 | 1007.7 |
| 20260901020950 | 71 | 239 | 11.3 | 16.5 | 0.00 | 0.00 | 0.00 | 58 | 1007.6 |
| 20260901020449 | 71 | 223 | 11.3 | 16.5 | 0.00 | 0.00 | 0.00 | 58 | 1007.6 |
| 20260901020213 | 72 | 245 | 11.3 | 17.4 | 0.00 | 0.00 | 0.00 | 57 | 1007.5 |
| 20260901015706 | 72 | 219 | 11.3 | 17.4 | 0.00 | 0.00 | 0.00 | 57 | 1007.4 |
| 20260901014946 | 72 | 281 | 11.3 | 15.6 | 0.00 | 0.00 | 0.00 | 57 | 1007.5 |
| 20260901014445 | 73 | 253 | 10.4 | 15.6 | 0.00 | 0.00 | 0.00 | 56 | 1007.4 |
| 20260901013945 | 73 | 266 | 8.7 | 14.8 | 0.00 | 0.00 | 0.00 | 56 | 1007.4 |
| 20260901013446 | 74 | 281 | 8.7 | 14.8 | 0.00 | 0.00 | 0.00 | 56 | 1007.4 |
| 20260901012944 | 75 | 273 | 8.7 | 16.5 | 0.00 | 0.00 | 0.00 | 55 | 1007.3 |
| 20260901012443 | 76 | 249 | 9.6 | 16.5 | 0.00 | 0.00 | 0.00 | 54 | 1007.2 |
| 20260901012204 | 76 | 281 | 9.6 | 14.8 | 0.00 | 0.00 | 0.00 | 53 | 1007.3 |
| 20260901011442 | 76 | 256 | 10.4 | 14.8 | 0.00 | 0.00 | 0.00 | 53 | 1007.3 |
| 20260901010941 | 77 | 241 | 9.6 | 16.5 | 0.00 | 0.00 | 0.00 | 52 | 1007.3 |
| 20260901010439 | 77 | 253 | 9.6 | 16.5 | 0.00 | 0.00 | 0.00 | 52 | 1007.2 |
| 20260901005939 | 78 | 281 | 9.6 | 16.5 | 0.00 | 0.00 | 0.00 | 52 | 1007.2 |
| 20260901005437 | 78 | 252 | 10.4 | 17.4 | 0.00 | 0.00 | 0.00 | 51 | 1007.2 |
| 20260901004939 | 79 | 247 | 10.4 | 17.4 | 0.00 | 0.00 | 0.00 | 50 | 1007.0 |
| 20260901004440 | 80 | 237 | 9.6 | 13.9 | 0.00 | 0.00 | 0.00 | 50 | 1007.1 |
| 20260901003938 | 80 | 263 | 9.6 | 13.9 | 0.00 | 0.00 | 0.00 | 50 | 1007.1 |
| 20260901003437 | 80 | 264 | 10.4 | 17.4 | 0.00 | 0.00 | 0.00 | 49 | 1007.0 |
| 20260901003158 | 80 | 281 | 11.3 | 19.1 | 0.00 | 0.00 | 0.00 | 49 | 1007.0 |
| 20260901002433 | 80 | 229 | 12.2 | 19.1 | 0.00 | 0.00 | 0.00 | 49 | 1006.9 |
| 20260901001934 | 81 | 253 | 12.2 | 20.0 | 0.00 | 0.00 | 0.00 | 48 | 1006.8 |
| 20260901001434 | 82 | 243 | 11.3 | 20.0 | 0.00 | 0.00 | 0.00 | 47 | 1006.8 |
| 20260901000934 | 83 | 245 | 11.3 | 17.4 | 0.00 | 0.00 | 0.00 | 46 | 1006.7 |
| 20260901000652 | 84 | 262 | 10.4 | 17.4 | 0.00 | 0.00 | 0.00 | 45 | 1006.7 |
| 20260831235931 | 84 | 259 | 7.8 | 17.4 | 0.00 | 0.00 | 0.00 | 43 | 1006.7 |
| 20260831235432 | 86 | 291 | 7.0 | 13.9 | 0.00 | 0.00 | 0.00 | 42 | 1006.6 |
| 20260831235149 | 85 | 281 | 5.2 | 11.3 | 0.00 | 0.00 | 0.00 | 42 | 1006.6 |
| 20260831234652 | 86 | 291 | 5.2 | 12.2 | 0.00 | 0.00 | 0.00 | 42 | 1006.6 |
| 20260831233932 | 87 | 332 | 6.1 | 12.2 | 0.00 | 0.00 | 0.00 | 41 | 1006.6 |
| 20260831233425 | 86 | 258 | 5.2 | 10.4 | 0.00 | 0.00 | 0.00 | 40 | 1006.6 |
| 20260831232923 | 86 | 309 | 5.2 | 9.6 | 0.00 | 0.00 | 0.00 | 42 | 1006.7 |
| 20260831232424 | 85 | 307 | 4.3 | 9.6 | 0.00 | 0.00 | 0.00 | 43 | 1006.7 |
| 20260831231916 | 86 | 332 | 3.5 | 8.7 | 0.00 | 0.00 | 0.00 | 43 | 1006.7 |
| 20260831231415 | 86 | 297 | 4.3 | 8.7 | 0.00 | 0.00 | 0.00 | 42 | 1006.7 |
| 20260831230914 | 85 | 312 | 4.3 | 8.7 | 0.00 | 0.00 | 0.00 | 42 | 1006.8 |
| 20260831230627 | 85 | 249 | 3.5 | 8.7 | 0.00 | 0.00 | 0.00 | 43 | 1006.9 |
| 20260831225905 | 85 | 338 | 3.5 | 7.0 | 0.00 | 0.00 | 0.00 | 42 | 1007.0 |
| 20260831225407 | 85 | 0 | 3.5 | 7.8 | 0.00 | 0.00 | 0.00 | 45 | 1007.0 |
| 20260831224907 | 85 | 343 | 3.5 | 7.8 | 0.00 | 0.00 | 0.00 | 42 | 1007.0 |
| 20260831224402 | 85 | 304 | 2.6 | 7.8 | 0.00 | 0.00 | 0.00 | 46 | 1007.0 |
| 20260831224128 | 84 | 59 | 3.5 | 7.8 | 0.00 | 0.00 | 0.00 | 42 | 1007.1 |
| 20260831223403 | 84 | 346 | 3.5 | 10.4 | 0.00 | 0.00 | 0.00 | 44 | 1007.1 |
| 20260831222901 | 84 | 353 | 3.5 | 10.4 | 0.00 | 0.00 | 0.00 | 44 | 1007.2 |
| 20260831222402 | 83 | 328 | 3.5 | 8.7 | 0.00 | 0.00 | 0.00 | 45 | 1007.3 |
| 20260831222124 | 84 | 18 | 3.5 | 7.8 | 0.00 | 0.00 | 0.00 | 45 | 1007.2 |
| 20260831221401 | 84 | 324 | 4.3 | 8.7 | 0.00 | 0.00 | 0.00 | 47 | 1007.5 |
| 20260831220901 | 83 | 299 | 4.3 | 8.7 | 0.00 | 0.00 | 0.00 | 46 | 1007.5 |
| 20260831220402 | 83 | 291 | 3.5 | 8.7 | 0.00 | 0.00 | 0.00 | 46 | 1007.6 |
| 20260831215859 | 83 | 3 | 3.5 | 7.0 | 0.00 | 0.00 | 0.00 | 46 | 1007.6 |
| 20260831215400 | 82 | 8 | 3.5 | 7.0 | 0.00 | 0.00 | 0.00 | 49 | 1007.8 |
| 20260831215340 | 82 | 313 | 3.5 | 7.8 | 0.00 | 0.00 | 0.00 | 47 | 1007.8 |
| 20260831214357 | 82 | 273 | 3.5 | 7.8 | 0.00 | 0.00 | 0.00 | 48 | 1007.9 |
| 20260831213857 | 82 | 310 | 3.5 | 7.8 | 0.00 | 0.00 | 0.00 | 48 | 1007.7 |
| 20260831213357 | 81 | 14 | 2.6 | 7.0 | 0.00 | 0.00 | 0.00 | 47 | 1007.9 |
| 20260831212855 | 80 | 281 | 2.6 | 7.0 | 0.00 | 0.00 | 0.00 | 46 | 1008.0 |
| 20260831212359 | 80 | 324 | 3.5 | 7.0 | 0.00 | 0.00 | 0.00 | 51 | 1008.1 |
| 20260831211842 | 80 | 291 | 3.5 | 10.4 | 0.00 | 0.00 | 0.00 | 47 | 1008.1 |
| 20260831211340 | 80 | 300 | 1.7 | 10.4 | 0.00 | 0.00 | 0.00 | 49 | 1008.2 |
| 20260831210832 | 79 | 170 | 1.7 | 6.1 | 0.00 | 0.00 | 0.00 | 48 | 1008.1 |
| 20260831210554 | 79 | 291 | 2.6 | 6.1 | 0.00 | 0.00 | 0.00 | 47 | 1008.2 |
| 20260831205834 | 78 | 18 | 1.7 | 6.1 | 0.00 | 0.00 | 0.00 | 48 | 1008.2 |
| 20260831205551 | 78 | 35 | 1.7 | 7.0 | 0.00 | 0.00 | 0.00 | 49 | 1008.2 |
| 20260831204828 | 78 | 342 | 2.6 | 7.0 | 0.00 | 0.00 | 0.00 | 51 | 1008.3 |
| 20260831204325 | 78 | 39 | 2.6 | 6.1 | 0.00 | 0.00 | 0.00 | 48 | 1008.3 |
| 20260831204047 | 79 | 320 | 3.5 | 8.7 | 0.00 | 0.00 | 0.00 | 49 | 1008.4 |
| 20260831203323 | 78 | 317 | 3.5 | 8.7 | 0.00 | 0.00 | 0.00 | 53 | 1008.3 |
| 20260831202821 | 79 | 60 | 2.6 | 6.1 | 0.00 | 0.00 | 0.00 | 51 | 1008.5 |
| 20260831202534 | 77 | 339 | 2.6 | 7.0 | 0.00 | 0.00 | 0.00 | 54 | 1008.7 |
| 20260831201818 | 76 | 64 | 2.6 | 7.0 | 0.00 | 0.00 | 0.00 | 50 | 1008.7 |
| 20260831201534 | 76 | 36 | 1.7 | 6.1 | 0.00 | 0.00 | 0.00 | 50 | 1008.6 |
| 20260831200812 | 77 | 106 | 1.7 | 6.1 | 0.00 | 0.00 | 0.00 | 50 | 1008.6 |
| 20260831200754 | 77 | 347 | 2.6 | 6.1 | 0.00 | 0.00 | 0.00 | 53 | 1008.8 |
| 20260831195811 | 75 | 342 | 1.7 | 7.0 | 0.00 | 0.00 | 0.00 | 54 | 1008.9 |
| 20260831195313 | 75 | 344 | 1.7 | 7.0 | 0.00 | 0.00 | 0.00 | 54 | 1009.0 |
| 20260831194810 | 74 | 274 | 2.6 | 7.8 | 0.00 | 0.00 | 0.00 | 54 | 1009.1 |
| 20260831194308 | 75 | 96 | 1.7 | 7.8 | 0.00 | 0.00 | 0.00 | 54 | 1009.2 |
| 20260831193809 | 75 | 316 | 1.7 | 6.1 | 0.00 | 0.00 | 0.00 | 57 | 1009.1 |
| 20260831193307 | 75 | 335 | 1.7 | 7.8 | 0.00 | 0.00 | 0.00 | 57 | 1009.2 |
| 20260831193040 | 73 | 52 | 2.6 | 7.8 | 0.00 | 0.00 | 0.00 | 56 | 1009.3 |
| 20260831192306 | 73 | 41 | 2.6 | 7.0 | 0.00 | 0.00 | 0.00 | 57 | 1009.4 |
| 20260831192028 | 72 | 49 | 1.7 | 6.1 | 0.00 | 0.00 | 0.00 | 58 | 1009.5 |
| 20260831191303 | 73 | 59 | 2.6 | 6.1 | 0.00 | 0.00 | 0.00 | 58 | 1009.6 |
| 20260831190758 | 72 | 22 | 2.6 | 7.8 | 0.00 | 0.00 | 0.00 | 60 | 1009.7 |
| 20260831190300 | 73 | 317 | 2.6 | 7.8 | 0.00 | 0.00 | 0.00 | 57 | 1009.7 |
| 20260831185754 | 71 | 359 | 1.7 | 7.0 | 0.00 | 0.00 | 0.00 | 63 | 1009.7 |
| 20260831185253 | 71 | 286 | 1.7 | 7.0 | 0.00 | 0.00 | 0.00 | 60 | 1009.9 |
| 20260831184751 | 71 | 349 | 1.7 | 6.1 | 0.00 | 0.00 | 0.00 | 63 | 1009.8 |
| 20260831184516 | 71 | 56 | 2.6 | 7.0 | 0.00 | 0.00 | 0.00 | 64 | 1009.9 |
| 20260831184011 | 71 | 20 | 3.5 | 7.8 | 0.00 | 0.00 | 0.00 | 64 | 1009.9 |
| 20260831183252 | 70 | 320 | 1.7 | 7.8 | 0.00 | 0.00 | 0.00 | 65 | 1009.9 |
| 20260831183013 | 69 | 237 | 1.7 | 7.8 | 0.00 | 0.00 | 0.00 | 63 | 1010.0 |
| 20260831182251 | 71 | 333 | 2.6 | 7.8 | 0.00 | 0.00 | 0.00 | 66 | 1010.0 |
| 20260831182013 | 69 | 16 | 3.5 | 7.8 | 0.00 | 0.00 | 0.00 | 66 | 1010.0 |
| 20260831181251 | 69 | 53 | 3.5 | 7.8 | 0.00 | 0.00 | 0.00 | 65 | 1009.9 |
| 20260831181026 | 69 | 359 | 2.6 | 7.8 | 0.00 | 0.00 | 0.00 | 68 | 1010.0 |
| 20260831180254 | 69 | 28 | 2.6 | 6.1 | 0.00 | 0.00 | 0.00 | 65 | 1010.1 |
| 20260831175744 | 69 | 12 | 2.6 | 7.0 | 0.00 | 0.00 | 0.00 | 66 | 1010.2 |
| 20260831175243 | 67 | 332 | 3.5 | 7.0 | 0.00 | 0.00 | 0.00 | 67 | 1010.2 |
| 20260831174743 | 67 | 52 | 2.6 | 7.0 | 0.00 | 0.00 | 0.00 | 70 | 1010.3 |
| 20260831174243 | 66 | 37 | 2.6 | 7.0 | 0.00 | 0.00 | 0.00 | 67 | 1010.3 |
| 20260831174007 | 67 | 0 | 2.6 | 7.0 | 0.00 | 0.00 | 0.00 | 66 | 1010.3 |
| 20260831173504 | 67 | 308 | 2.6 | 7.8 | 0.00 | 0.00 | 0.00 | 69 | 1010.2 |
| 20260831172734 | 67 | 332 | 2.6 | 7.8 | 0.00 | 0.00 | 0.00 | 69 | 1010.3 |
| 20260831172450 | 67 | 335 | 1.7 | 5.2 | 0.00 | 0.00 | 0.00 | 69 | 1010.3 |
| 20260831171729 | 66 | 37 | 2.6 | 6.1 | 0.00 | 0.00 | 0.00 | 70 | 1010.3 |
| 20260831171230 | 65 | 74 | 1.7 | 6.1 | 0.00 | 0.00 | 0.00 | 70 | 1010.4 |
| 20260831170723 | 65 | 349 | 2.6 | 7.0 | 0.00 | 0.00 | 0.00 | 72 | 1010.4 |
| 20260831170223 | 66 | 308 | 3.5 | 7.0 | 0.00 | 0.00 | 0.00 | 70 | 1010.3 |
| 20260831165717 | 65 | 304 | 2.6 | 7.0 | 0.00 | 0.00 | 0.00 | 71 | 1010.5 |
| 20260831165214 | 65 | 357 | 2.6 | 6.1 | 0.00 | 0.00 | 0.00 | 72 | 1010.5 |
| 20260831164710 | 64 | 344 | 1.7 | 4.3 | 0.00 | 0.00 | 0.00 | 71 | 1010.5 |
| 20260831164206 | 64 | 330 | 2.6 | 5.2 | 0.00 | 0.00 | 0.00 | 71 | 1010.4 |
| 20260831163704 | 64 | 59 | 2.6 | 5.2 | 0.00 | 0.00 | 0.00 | 72 | 1010.5 |
| 20260831163205 | 63 | 76 | 2.6 | 5.2 | 0.00 | 0.00 | 0.00 | 73 | 1010.5 |
| 20260831162704 | 63 | 18 | 1.7 | 5.2 | 0.00 | 0.00 | 0.00 | 74 | 1010.5 |
| 20260831162205 | 61 | 354 | 0.9 | 4.3 | 0.00 | 0.00 | 0.00 | 78 | 1010.7 |
| 20260831161700 | 61 | 29 | 0.9 | 2.6 | 0.00 | 0.00 | 0.00 | 77 | 1010.7 |
| 20260831161154 | 61 | 35 | 0.9 | 2.6 | 0.00 | 0.00 | 0.00 | 78 | 1010.8 |
| 20260831160912 | 59 | 342 | 0.9 | 2.6 | 0.00 | 0.00 | 0.00 | 79 | 1010.9 |
| 20260831160151 | 59 | 79 | 0.0 | 2.6 | 0.00 | 0.00 | 0.00 | 80 | 1011.0 |
| 20260831155649 | 59 | 127 | 0.0 | 1.7 | 0.00 | 0.00 | 0.00 | 82 | 1011.1 |
| 20260831155145 | 58 | 127 | 0.0 | 1.7 | 0.00 | 0.00 | 0.00 | 81 | 1011.1 |
| 20260831154913 | 58 | 127 | 0.0 | 0.9 | 0.00 | 0.00 | 0.00 | 81 | 1011.1 |
| 20260831154136 | 57 | 127 | 0.0 | 0.9 | 0.00 | 0.00 | 0.00 | 81 | 1011.1 |
| 20260831153839 | 56 | 127 | 0.0 | 0.9 | 0.00 | 0.00 | 0.00 | 83 | 1011.1 |
| 20260831153106 | 56 | 127 | 0.0 | 0.9 | 0.00 | 0.00 | 0.00 | 84 | 1011.1 |
| 20260831152603 | 55 | 127 | 0.0 | 0.9 | 0.00 | 0.00 | 0.00 | 83 | 1011.2 |
| 20260831152105 | 55 | 127 | 0.0 | 0.0 | 0.00 | 0.00 | 0.00 | 84 | 1011.1 |
| 20260831151603 | 54 | 127 | 0.0 | 0.0 | 0.00 | 0.00 | 0.00 | 85 | 1011.0 |
| 20260831151059 | 53 | 127 | 0.0 | 0.9 | 0.00 | 0.00 | 0.00 | 87 | 1011.0 |
| 20260831150538 | 53 | 127 | 0.0 | 0.9 | 0.00 | 0.00 | 0.00 | 86 | 1011.0 |
| 20260831150037 | 53 | 127 | 0.0 | 0.9 | 0.00 | 0.00 | 0.00 | 87 | 1010.8 |
| 20260831145530 | 52 | 127 | 0.0 | 0.0 | 0.00 | 0.00 | 0.00 | 89 | 1010.7 |
| 20260831145028 | 51 | 127 | 0.0 | 0.0 | 0.00 | 0.00 | 0.00 | 90 | 1010.9 |
| 20260831144525 | 51 | 127 | 0.0 | 0.0 | 0.00 | 0.00 | 0.00 | 90 | 1010.8 |
| 20260831144022 | 50 | 127 | 0.0 | 0.0 | 0.00 | 0.00 | 0.00 | 91 | 1010.8 |
| 20260831143505 | 50 | 127 | 0.0 | 0.0 | 0.00 | 0.00 | 0.00 | 91 | 1010.8 |
| 20260831143006 | 50 | 127 | 0.0 | 0.0 | 0.00 | 0.00 | 0.00 | 92 | 1010.9 |
| 20260831142505 | 49 | 127 | 0.0 | 0.0 | 0.00 | 0.00 | 0.00 | 91 | 1010.8 |
| 20260831141959 | 49 | 127 | 0.0 | 0.0 | 0.00 | 0.00 | 0.00 | 91 | 1010.9 |
| 20260831141447 | 49 | 127 | 0.0 | 0.0 | 0.00 | 0.00 | 0.00 | 91 | 1010.8 |
| 20260831140928 | 49 | 127 | 0.0 | 0.0 | 0.00 | 0.00 | 0.00 | 91 | 1010.8 |
| 20260831140416 | 49 | 127 | 0.0 | 0.0 | 0.00 | 0.00 | 0.00 | 90 | 1010.8 |
| 20260831135906 | 49 | 127 | 0.0 | 0.9 | 0.00 | 0.00 | 0.00 | 89 | 1010.9 |
| 20260831135405 | 50 | 127 | 0.0 | 0.9 | 0.00 | 0.00 | 0.00 | 90 | 1010.8 |
| 20260831134901 | 50 | 127 | 0.9 | 2.6 | 0.00 | 0.00 | 0.00 | 90 | 1010.8 |
| 20260831134356 | 50 | 127 | 0.9 | 2.6 | 0.00 | 0.00 | 0.00 | 90 | 1010.8 |
| 20260831133854 | 50 | 31 | 0.9 | 2.6 | 0.00 | 0.00 | 0.00 | 91 | 1010.7 |
| 20260831133343 | 49 | 180 | 0.9 | 1.7 | 0.00 | 0.00 | 0.00 | 91 | 1010.6 |
| 20260831132836 | 49 | 180 | 0.9 | 1.7 | 0.00 | 0.00 | 0.00 | 91 | 1010.6 |
| 20260831132331 | 49 | 180 | 0.0 | 1.7 | 0.00 | 0.00 | 0.00 | 91 | 1010.6 |
| 20260831131831 | 49 | 180 | 0.9 | 1.7 | 0.00 | 0.00 | 0.00 | 91 | 1010.5 |
| 20260831131330 | 49 | 180 | 0.9 | 1.7 | 0.00 | 0.00 | 0.00 | 91 | 1010.6 |
| 20260831130828 | 49 | 180 | 0.9 | 1.7 | 0.00 | 0.00 | 0.00 | 91 | 1010.7 |
| 20260831130325 | 49 | 180 | 0.0 | 1.7 | 0.00 | 0.00 | 0.00 | 91 | 1010.7 |
| 20260831125824 | 49 | 180 | 0.0 | 1.7 | 0.00 | 0.00 | 0.00 | 91 | 1010.8 |
| 20260831125326 | 49 | 180 | 0.0 | 0.9 | 0.00 | 0.00 | 0.00 | 91 | 1010.8 |
| 20260831124819 | 49 | 180 | 0.0 | 0.9 | 0.00 | 0.00 | 0.00 | 91 | 1010.8 |
| 20260831124310 | 50 | 180 | 0.0 | 0.9 | 0.00 | 0.00 | 0.00 | 91 | 1010.9 |
| 20260831123804 | 50 | 180 | 0.9 | 1.7 | 0.00 | 0.00 | 0.00 | 91 | 1010.9 |
| 20260831123304 | 50 | 180 | 0.9 | 2.6 | 0.00 | 0.00 | 0.00 | 90 | 1011.0 |
| 20260831122805 | 50 | 180 | 0.9 | 2.6 | 0.00 | 0.00 | 0.00 | 90 | 1011.0 |
| 20260831122251 | 50 | 180 | 0.9 | 1.7 | 0.00 | 0.00 | 0.00 | 90 | 1011.0 |
| 20260831121751 | 50 | 180 | 0.9 | 1.7 | 0.00 | 0.00 | 0.00 | 89 | 1011.1 |
| 20260831121250 | 50 | 180 | 0.9 | 1.7 | 0.00 | 0.00 | 0.00 | 89 | 1011.1 |
| 20260831121242 | 50 | 180 | 0.9 | 1.7 | 0.00 | 0.00 | 0.00 | 89 | 1011.1 |
| 20260831120246 | 50 | 180 | 0.9 | 1.7 | 0.00 | 0.00 | 0.00 | 89 | 1011.1 |
| 20260831115744 | 50 | 180 | 0.9 | 1.7 | 0.00 | 0.00 | 0.00 | 89 | 1011.1 |
| 20260831115246 | 51 | 180 | 0.9 | 1.7 | 0.00 | 0.00 | 0.00 | 89 | 1011.1 |
| 20260831114744 | 51 | 180 | 0.9 | 1.7 | 0.00 | 0.00 | 0.00 | 89 | 1011.1 |
| 20260831114238 | 51 | 180 | 0.9 | 2.6 | 0.00 | 0.00 | 0.00 | 89 | 1011.0 |
| 20260831113958 | 51 | 180 | 0.9 | 2.6 | 0.00 | 0.00 | 0.00 | 89 | 1011.0 |
| 20260831113223 | 51 | 180 | 0.0 | 1.7 | 0.00 | 0.00 | 0.00 | 89 | 1011.2 |